Starlink 11726

operational
NORAD ID: 64067 Int'l Des: 2025-107 Owner: SPXS Country: US Constellation: starlink
LEOCIRCULAR

关于 Starlink 11726

正在加载描述...

实时位置

正在加载3D地球...

即将过境

高度历史

Altitude vs Time

uPlot chart will show altitude changes over time

两行轨道根数

1 64067U 25107D 26063.18402520 .00500580 00000-0 36364-2 0 9999
2 64067 43.0001 131.2870 0002145 248.1689 111.8951 15.71089847 46438
Epoch: Mar 4, 2026 • Age: 19 hours

当前状态

高度 361.0 km
速度 7.69 km/s
星下点 -28.90°S, 3.35°W
发射日期 May 21, 2025
运行时间 0.7 years
类型 internet

技术详情

分类 Payload
质量 960.00 kg
干质量 910.00 kg
总质量 960.00 kg
长度 0.30 m
直径 4.10 m
跨度 29.00 m
形状 Box + pan
制造商 SPXS
平台类型 Starlink V2MD
阶段状态 In Orbit
所有者/国家 SPXS/US

大型星座

Loading constellations...